Weather History for BGBW - July, 2012

Change the Weather History Date:

Wednesday, July 25, 2012

  Actual Average Record
Temperature  
Mean Temperature 51 °F -  
Max Temperature 61 °F 57 °F 64 °F (2003)
Min Temperature 41 °F 43 °F 41 °F (2012)
Degree Days  
Heating Degree Days 14    
Growing Degree Days 1 (Base 50)    
Moisture  
Dew Point 40 °F    
Average Humidity 63    
Maximum Humidity 87    
Minimum Humidity 34    
Precipitation  
Precipitation 0.00 in 0.09 in - ()
Sea Level Pressure  
Sea Level Pressure 30.00 in    
Wind  
Wind Speed 4 mph ()    
Max Wind Speed 12 mph    
Max Gust Speed -    
Visibility 7.1 miles    
Events      
Averages and records for this station are not official NWS values.
T = Trace of Precipitation, MM = Missing Value Source: Averaged Metar Reports

Daily Weather History Graph

Daily Weather History Graph

Search for Another Location

Airport or City:

Trip Planner

Search our weather history database for the weather conditions in past years. The results will help you decide how hot, cold, wet, or windy it might be!

Date:

Astronomy

Jul. 25, 2012 Rise Set
Actual Time 4:17 AM WGST 9:56 PM WGST
Civil Twilight 3:03 AM WGST 11:09 PM WGST
Nautical Twilight Sun does not rise 12:35 AM WGST
Astronomical Twilight Sun does not rise Sun does not rise
Moon 1:44 PM WGST (7/25) 10:42 PM WGST (7/25)
Length of Visible Light 20h 05m
Length of Day
17h 38m
Waxing Crescent, 41% of the Moon is Illuminated
Jul 25
Waxing Crescent
Jul 26
First Quarter
Aug 2
Full
Aug 9
Last Quarter
Aug 17
New

Hourly Weather History & Observations

Time (WGST) Temp. Windchill Dew Point Humidity Pressure Visibility Wind Dir Wind Speed Gust Speed Precip Events Conditions
1:00 AM 47 °F - 39 °F 67% 29.88 in 25 mi NNE 3.5 mph - -  
3:50 AM 42.8 °F - 37.4 °F 81% 29.92 in 6.2 mi ENE 1.2 mph - N/A   Clear
4:00 AM 43 °F - 38 °F 77% 29.94 in 28 mi ENE 1.2 mph - -  
4:50 AM 41.0 °F - 37.4 °F 87% 29.95 in 6.2 mi East 2.3 mph - N/A   Partly Cloudy
5:50 AM 42.8 °F 39.3 °F 39.2 °F 87% 29.95 in 6.2 mi ENE 5.8 mph - N/A   Scattered Clouds
6:50 AM 42.8 °F 41.1 °F 39.2 °F 87% 29.98 in 6.2 mi SW 3.5 mph - N/A   Scattered Clouds
7:00 AM 45 °F - 38 °F 70% 29.97 in 28 mi SSE 2.3 mph - -  
7:50 AM 44.6 °F 42.2 °F 41.0 °F 87% 29.95 in 6.2 mi SSW 4.6 mph - N/A   Partly Cloudy
8:50 AM 50.0 °F - 41.0 °F 71% 29.98 in 6.2 mi WNW 4.6 mph - N/A   Partly Cloudy
9:50 AM 51.8 °F - 41.0 °F 67% 29.98 in 6.2 mi WNW 4.6 mph - N/A   Scattered Clouds
10:00 AM 53 °F - 39 °F 47% 29.98 in 19 mi WNW 3.5 mph - -  
10:50 AM 53.6 °F - 41.0 °F 62% 29.98 in 6.2 mi WNW 4.6 mph - N/A   Scattered Clouds
11:50 AM 57.2 °F - 41.0 °F 55% 29.98 in 6.2 mi West 9.2 mph - N/A   Scattered Clouds
12:50 PM 59.0 °F - 39.2 °F 48% 29.98 in 6.2 mi WSW 10.4 mph - N/A   Scattered Clouds
1:00 PM 59 °F - 38 °F 34% 30.00 in 14 mi WSW 9.2 mph - -  
1:50 PM 60.8 °F - 41.0 °F 48% 29.98 in 6.2 mi WSW 9.2 mph - N/A   Mostly Cloudy
2:50 PM 59.0 °F - 41.0 °F 51% 30.01 in 6.2 mi WSW 11.5 mph - N/A   Mostly Cloudy
3:50 PM 57.2 °F - 42.8 °F 59% 30.01 in 6.2 mi West 8.1 mph - N/A   Mostly Cloudy
4:00 PM 55 °F - 41 °F 49% 30.03 in 22 mi WSW 8.1 mph - -   Mostly Cloudy
4:50 PM 57.2 °F - 42.8 °F 59% 30.01 in 6.2 mi West 5.8 mph - N/A   Mostly Cloudy
5:50 PM 57.2 °F - 42.8 °F 59% 30.04 in 6.2 mi WSW 8.1 mph - N/A   Mostly Cloudy
6:50 PM 55.4 °F - 42.8 °F 63% 30.04 in 6.2 mi WSW 8.1 mph - N/A   Mostly Cloudy
7:00 PM 55 °F - 41 °F 48% 30.06 in 25 mi West 8.1 mph - -   Mostly Cloudy
7:50 PM 53.6 °F - 42.8 °F 67% 30.04 in 6.2 mi West 3.5 mph - N/A   Mostly Cloudy
8:50 PM 53.6 °F - 42.8 °F 67% 30.06 in 6.2 mi ENE 3.5 mph - N/A   Mostly Cloudy
9:50 PM 51.8 °F - 37.4 °F 58% 30.04 in 6.2 mi NE 10.4 mph - N/A   Mostly Cloudy
10:00 PM 51 °F - 35 °F 42% 30.05 in 28 mi NE 6.9 mph - -   Scattered Clouds
10:50 PM 51.8 °F - 42.8 °F 71% 30.04 in 6.2 mi WSW 3.5 mph - N/A   Mostly Cloudy
11:50 PM 51.8 °F - 42.8 °F 71% 30.04 in 6.2 mi East 4.6 mph - N/A   Mostly Cloudy